TimeMST,TemperatureF,Dew PointF,Humidity,Sea Level PressureIn,VisibilityMPH,Wind Direction,Wind SpeedMPH,Gust SpeedMPH,PrecipitationIn,Events,Conditions,WindDirDegrees,DateUTC
12:53 AM,6.1,3.9,91,30.32,7.0,Calm,Calm,-,N/A,,Clear,0,2013-01-08 07:53:00
1:53 AM,5.0,3.0,92,30.33,8.0,NE,4.6,-,N/A,,Clear,50,2013-01-08 08:53:00
2:53 AM,5.0,1.9,87,30.33,10.0,Calm,Calm,-,N/A,,Clear,0,2013-01-08 09:53:00
3:53 AM,1.9,-0.0,91,30.34,10.0,Calm,Calm,-,N/A,,Clear,0,2013-01-08 10:53:00
4:53 AM,1.9,-0.0,91,30.36,10.0,East,3.5,-,N/A,,Clear,100,2013-01-08 11:53:00
5:53 AM,3.0,1.0,91,30.38,9.0,East,6.9,-,N/A,,Clear,90,2013-01-08 12:53:00
6:53 AM,6.1,1.9,83,30.39,10.0,ESE,3.5,-,N/A,,Clear,110,2013-01-08 13:53:00
7:53 AM,-0.0,-0.9,96,30.46,6.0,WNW,3.5,-,N/A,,Clear,300,2013-01-08 14:53:00
8:53 AM,5.0,1.9,87,30.47,6.0,Calm,Calm,-,N/A,,Clear,0,2013-01-08 15:53:00
9:53 AM,10.0,6.1,84,30.47,7.0,Calm,Calm,-,N/A,,Clear,0,2013-01-08 16:53:00
10:53 AM,15.1,8.1,74,30.44,6.0,Calm,Calm,-,N/A,,Haze,0,2013-01-08 17:53:00
11:53 AM,21.0,10.9,65,30.38,9.0,East,3.5,-,0.00,,Clear,100,2013-01-08 18:53:00
12:53 PM,19.9,12.0,71,30.40,6.0,WNW,6.9,-,N/A,,Haze,300,2013-01-08 19:53:00
1:53 PM,18.0,12.9,81,30.41,6.0,NW,5.8,-,N/A,,Haze,310,2013-01-08 20:53:00
2:53 PM,19.9,14.0,78,30.40,5.0,Calm,Calm,-,N/A,,Haze,0,2013-01-08 21:53:00
3:53 PM,21.9,14.0,72,30.43,10.0,North,5.8,-,N/A,,Clear,350,2013-01-08 22:53:00
4:53 PM,19.0,12.9,77,30.45,9.0,Calm,Calm,-,N/A,,Clear,0,2013-01-08 23:53:00
5:53 PM,10.9,8.1,88,30.52,9.0,Calm,Calm,-,N/A,,Clear,0,2013-01-09 00:53:00
6:53 PM,12.9,8.1,81,30.52,10.0,ENE,3.5,-,N/A,,Clear,70,2013-01-09 01:53:00
7:53 PM,10.9,6.1,81,30.57,8.0,East,3.5,-,N/A,,Clear,80,2013-01-09 02:53:00
8:53 PM,10.9,7.0,84,30.58,7.0,NE,5.8,-,N/A,,Clear,50,2013-01-09 03:53:00
9:53 PM,7.0,3.9,87,30.61,7.0,Calm,Calm,-,N/A,,Clear,0,2013-01-09 04:53:00
10:53 PM,9.0,6.1,88,30.59,6.0,SE,9.2,-,N/A,,Clear,130,2013-01-09 05:53:00
11:53 PM,15.1,9.0,77,30.54,10.0,SSW,3.5,-,N/A,,Clear,200,2013-01-09 06:53:00